BAW78 DGAA-EGLL

Flight info

Callsign BAW78
Flight time 6h 28m
Altitude 37000
Route LITEX1D LITEX DCT KILMO UB726 BATIA DCT IPUTA DCT ABALA/N0489F390 DCT MIGNI DCT EREBO/N0493F380 UA604 TMS UA615 TIFOU/N0482F400 UA615 GHA/N0480F390 UB726 BSA/N0478F400 UJ66 ALR UG30 SADAF DCT SURIB DCT INSUB DCT RONDU DCT IZA DCT OKITI DCT GODOX DCT EPAMA DCT MARTA DCT EBROX DCT UMURE DCT XIKEN DCT KARES DCT ARBEK DCT REBUL DCT USKAR DCT MOPAS DCT GIROM DCT GONUP DCT MANAK DCT EPAPU DCT RINSO DCT EKRAS DCT REVTU/N0480F340 DCT BOLRO UP87 ROXOG ROXOG1H
Aircraft A35K/H-SBDE1E2E3GHIJ1J3J4J5J6M1M2P2RWXYZ/LB1D1

Departure

Time 2026-04-24 23:47
Airport Kotoka International Airport (DGAA)

Arrival

Time 2026-04-25 06:16
Airport London Heathrow Airport (EGLL)
Time Latitude Longitude Altitude Speed Heading
2026-04-24 23:30 5.60486 -0.17082 228 ft 0 kts 292°
2026-04-24 23:35 5.60486 -0.17081 228 ft 2 kts 293°
2026-04-24 23:36 5.60476 -0.17064 230 ft 3 kts 307°
2026-04-24 23:36 5.60464 -0.17048 229 ft 3 kts 307°
2026-04-24 23:36 5.60450 -0.17032 228 ft 3 kts 322°
2026-04-24 23:36 5.60432 -0.17022 229 ft 3 kts 341°
2026-04-24 23:37 5.60411 -0.17017 230 ft 3 kts 355°
2026-04-24 23:37 5.60400 -0.17016 226 ft 3 kts 359°
2026-04-24 23:37 5.60392 -0.17016 223 ft 0 kts
2026-04-24 23:40 5.60394 -0.17016 223 ft 3 kts
2026-04-24 23:41 5.60426 -0.16999 225 ft 6 kts 35°
2026-04-24 23:41 5.60464 -0.16967 228 ft 8 kts 37°
2026-04-24 23:41 5.60518 -0.16936 225 ft 9 kts 27°
2026-04-24 23:41 5.60581 -0.16904 226 ft 11 kts 25°
2026-04-24 23:42 5.60652 -0.16872 227 ft 12 kts 21°
2026-04-24 23:42 5.60724 -0.16845 227 ft 11 kts 19°
2026-04-24 23:42 5.60801 -0.16816 228 ft 13 kts 22°
2026-04-24 23:42 5.60879 -0.16782 228 ft 3 kts 23°
2026-04-24 23:43 5.60905 -0.16771 229 ft 5 kts 23°
2026-04-24 23:43 5.60948 -0.16753 229 ft 8 kts 23°
2026-04-24 23:43 5.60997 -0.16732 228 ft 9 kts 23°
2026-04-24 23:43 5.61095 -0.16692 227 ft 14 kts 20°
2026-04-24 23:44 5.61162 -0.16666 226 ft 17 kts 22°
2026-04-24 23:44 5.61258 -0.16628 226 ft 12 kts 21°
2026-04-24 23:44 5.61351 -0.16590 225 ft 17 kts 22°
2026-04-24 23:44 5.61460 -0.16544 226 ft 15 kts 23°
2026-04-24 23:45 5.61493 -0.16530 224 ft 4 kts 24°
2026-04-24 23:45 5.61531 -0.16506 224 ft 9 kts 37°
2026-04-24 23:45 5.61565 -0.16439 225 ft 12 kts 89°
2026-04-24 23:45 5.61528 -0.16364 225 ft 12 kts 138°
2026-04-24 23:46 5.61451 -0.16344 228 ft 12 kts 187°
2026-04-24 23:46 5.61431 -0.16350 227 ft 0 kts 200°
2026-04-24 23:46 5.61427 -0.16352 227 ft 4 kts 200°
2026-04-24 23:47 5.61153 -0.16460 226 ft 88 kts 202°
2026-04-24 23:47 5.60313 -0.16801 224 ft 170 kts 201°
2026-04-24 23:47 5.59083 -0.17324 744 ft 204 kts 203°
2026-04-24 23:47 5.57723 -0.17935 1646 ft 228 kts 206°
2026-04-24 23:48 5.56193 -0.18593 2429 ft 245 kts 204°
2026-04-24 23:48 5.54536 -0.19002 3121 ft 253 kts 180°
2026-04-24 23:48 5.52842 -0.18434 3823 ft 265 kts 147°
2026-04-24 23:48 5.51700 -0.16966 4500 ft 275 kts 112°
2026-04-24 23:49 5.51526 -0.15063 5231 ft 279 kts 79°
2026-04-24 23:49 5.52385 -0.13331 5997 ft 281 kts 50°
2026-04-24 23:49 5.53715 -0.11892 6755 ft 281 kts 47°
2026-04-24 23:49 5.55205 -0.10631 7537 ft 280 kts 33°
2026-04-24 23:50 5.56797 -0.09496 8387 ft 279 kts 39°
2026-04-24 23:50 5.58352 -0.08375 9207 ft 280 kts 33°
2026-04-24 23:50 5.60120 -0.07540 9982 ft 283 kts 21°
2026-04-24 23:50 5.62019 -0.06877 10470 ft 297 kts 21°
2026-04-24 23:51 5.64011 -0.06146 10820 ft 313 kts 22°
2026-04-24 23:51 5.66079 -0.05341 11185 ft 328 kts 23°
2026-04-24 23:51 5.68255 -0.04469 11543 ft 342 kts 23°
2026-04-24 23:51 5.70496 -0.03560 11890 ft 355 kts 23°
2026-04-24 23:52 5.72818 -0.02611 12356 ft 362 kts 23°
2026-04-24 23:52 5.75167 -0.01651 12900 ft 367 kts 23°
2026-04-24 23:52 5.77552 -0.00673 13457 ft 372 kts 23°
2026-04-24 23:52 5.79960 0.00319 13971 ft 375 kts 23°
2026-04-24 23:53 5.82389 0.01320 14444 ft 380 kts 23°
2026-04-24 23:53 5.84846 0.02332 14909 ft 384 kts 22°
2026-04-24 23:53 5.87331 0.03355 15402 ft 387 kts 22°
2026-04-24 23:53 5.89831 0.04379 15880 ft 390 kts 22°
2026-04-24 23:54 5.92409 0.05254 16350 ft 394 kts 14°
2026-04-24 23:54 5.95143 0.05645 16831 ft 398 kts
2026-04-24 23:54 5.97911 0.05458 17295 ft 403 kts 351°
2026-04-24 23:54 6.00624 0.04855 17777 ft 406 kts 347°
2026-04-24 23:55 6.03393 0.04161 18242 ft 409 kts 347°
2026-04-24 23:55 6.06164 0.03472 18634 ft 413 kts 347°
2026-04-24 23:55 6.08964 0.02782 19024 ft 416 kts 347°
2026-04-24 23:55 6.11795 0.02088 19426 ft 419 kts 347°
2026-04-24 23:56 6.14639 0.01393 19816 ft 422 kts 347°
2026-04-24 23:56 6.17502 0.00695 20203 ft 425 kts 347°
2026-04-24 23:56 6.20383 -0.00008 20590 ft 428 kts 347°
2026-04-24 23:56 6.23294 -0.00717 20991 ft 431 kts 347°
2026-04-24 23:57 6.26223 -0.01431 21370 ft 435 kts 347°
2026-04-24 23:57 6.29172 -0.02151 21749 ft 438 kts 347°
2026-04-24 23:57 6.32148 -0.02876 22134 ft 442 kts 347°
2026-04-24 23:57 6.35146 -0.03608 22530 ft 445 kts 347°
2026-04-24 23:58 6.38170 -0.04345 22921 ft 448 kts 347°
2026-04-24 23:58 6.41203 -0.05085 23305 ft 451 kts 347°
2026-04-24 23:58 6.44235 -0.05824 23659 ft 454 kts 347°
2026-04-24 23:58 6.47308 -0.06575 24018 ft 456 kts 347°
2026-04-24 23:59 6.50398 -0.07329 24398 ft 457 kts 347°
2026-04-24 23:59 6.53494 -0.08084 24780 ft 459 kts 347°
2026-04-24 23:59 6.56617 -0.08844 25174 ft 461 kts 347°
2026-04-24 23:59 6.59767 -0.09441 25586 ft 462 kts 353°
2026-04-25 00:00 6.62984 -0.09598 26013 ft 464 kts
2026-04-25 00:00 6.66191 -0.09255 26459 ft 465 kts 11°
2026-04-25 00:00 6.69330 -0.08421 26911 ft 467 kts 19°
2026-04-25 00:00 6.72412 -0.07324 27341 ft 470 kts 20°
2026-04-25 00:01 6.75481 -0.06146 27760 ft 473 kts 21°
2026-04-25 00:01 6.78558 -0.04930 28180 ft 476 kts 21°
2026-04-25 00:01 6.81651 -0.03702 28611 ft 479 kts 21°
2026-04-25 00:01 6.84722 -0.02490 29040 ft 481 kts 21°
2026-04-25 00:02 6.87892 -0.01249 29434 ft 484 kts 21°
2026-04-25 00:02 6.91042 -0.00024 29819 ft 487 kts 21°
2026-04-25 00:02 6.94183 0.01191 30156 ft 490 kts 20°
2026-04-25 00:02 6.97374 0.02424 30456 ft 493 kts 20°
2026-04-25 00:03 7.00584 0.03662 30762 ft 495 kts 20°
2026-04-25 00:03 7.03809 0.04908 31036 ft 498 kts 20°
2026-04-25 00:03 7.07052 0.06160 31311 ft 501 kts 20°
2026-04-25 00:03 7.10323 0.07424 31636 ft 502 kts 20°
2026-04-25 00:04 7.13576 0.08681 32045 ft 501 kts 20°
2026-04-25 00:04 7.16834 0.09941 32442 ft 501 kts 20°
2026-04-25 00:04 7.20090 0.11200 32825 ft 501 kts 20°
2026-04-25 00:04 7.23342 0.12458 33201 ft 500 kts 20°
2026-04-25 00:05 7.26584 0.13713 33593 ft 500 kts 20°
2026-04-25 00:05 7.29835 0.14971 33958 ft 499 kts 20°
2026-04-25 00:05 7.33076 0.16225 34260 ft 499 kts 20°
2026-04-25 00:05 7.36328 0.17484 34562 ft 499 kts 20°
2026-04-25 00:06 7.39576 0.18741 34872 ft 499 kts 20°
2026-04-25 00:06 7.42817 0.19996 35155 ft 499 kts 20°
2026-04-25 00:06 7.46015 0.21234 35434 ft 499 kts 20°
2026-04-25 00:06 7.49297 0.22505 35724 ft 499 kts 20°
2026-04-25 00:07 7.52541 0.23762 35998 ft 499 kts 20°
2026-04-25 00:07 7.55782 0.25017 36270 ft 499 kts 20°
2026-04-25 00:07 7.58981 0.26257 36539 ft 499 kts 20°
2026-04-25 00:07 7.62267 0.27531 36801 ft 500 kts 20°
2026-04-25 00:08 7.68735 0.30038 36882 ft 502 kts 20°
2026-04-25 00:08 7.75264 0.32570 36880 ft 503 kts 20°
2026-04-25 00:09 7.81791 0.35103 36869 ft 503 kts 20°
2026-04-25 00:09 7.88333 0.37641 36885 ft 503 kts 20°
2026-04-25 00:10 7.94866 0.40177 36882 ft 503 kts 20°
2026-04-25 00:10 8.01398 0.42713 36891 ft 503 kts 20°
2026-04-25 00:11 8.06824 0.44821 36894 ft 503 kts 20°
2026-04-25 00:11 8.14455 0.47786 36882 ft 503 kts 20°
2026-04-25 00:12 8.20977 0.50321 36896 ft 502 kts 20°
2026-04-25 00:12 8.27510 0.52861 36887 ft 503 kts 20°
2026-04-25 00:13 8.34035 0.55399 36882 ft 503 kts 20°
2026-04-25 00:13 8.40525 0.57924 36902 ft 503 kts 20°
2026-04-25 00:14 8.47062 0.60469 36888 ft 503 kts 20°
2026-04-25 00:14 8.53594 0.63013 36886 ft 503 kts 20°
2026-04-25 00:15 8.60124 0.65556 36884 ft 503 kts 20°
2026-04-25 00:15 8.65597 0.67689 36883 ft 503 kts 20°
2026-04-25 00:16 8.73196 0.70651 36881 ft 503 kts 20°
2026-04-25 00:16 8.79724 0.73197 36876 ft 503 kts 20°
2026-04-25 00:17 8.86258 0.75745 36878 ft 504 kts 20°
2026-04-25 00:17 8.92800 0.78299 36876 ft 504 kts 20°
2026-04-25 00:18 8.99336 0.80851 36874 ft 504 kts 20°
2026-04-25 00:18 9.05883 0.83408 36872 ft 504 kts 20°
2026-04-25 00:19 9.12432 0.85967 36870 ft 504 kts 20°
2026-04-25 00:19 9.18978 0.88525 36868 ft 504 kts 20°
2026-04-25 00:20 9.25486 0.91070 36869 ft 504 kts 20°
2026-04-25 00:20 9.32034 0.93632 36868 ft 504 kts 20°
2026-04-25 00:21 9.38590 0.96197 36868 ft 504 kts 20°
2026-04-25 00:21 9.45136 0.98760 36871 ft 504 kts 20°
2026-04-25 00:22 9.51764 1.01109 36890 ft 503 kts 15°
2026-04-25 00:22 9.58466 1.02999 36906 ft 503 kts 14°
2026-04-25 00:23 9.65205 1.04901 36928 ft 503 kts 14°
2026-04-25 00:23 9.71941 1.06886 36938 ft 504 kts 15°
2026-04-25 00:24 9.78655 1.08903 36938 ft 504 kts 15°
2026-04-25 00:24 9.85372 1.10927 36938 ft 504 kts 15°
2026-04-25 00:25 9.90961 1.12608 36923 ft 504 kts 15°
2026-04-25 00:25 9.98821 1.14972 36896 ft 504 kts 15°
2026-04-25 00:26 10.05550 1.16995 36878 ft 504 kts 15°
2026-04-25 00:26 10.12270 1.19017 36851 ft 504 kts 14°
2026-04-25 00:27 10.17867 1.20701 36847 ft 504 kts 14°
2026-04-25 00:27 10.25693 1.23058 36849 ft 504 kts 14°
2026-04-25 00:28 10.32422 1.25086 36850 ft 505 kts 14°
2026-04-25 00:28 10.39168 1.27118 36847 ft 505 kts 14°
2026-04-25 00:29 10.45905 1.29149 36847 ft 505 kts 14°
2026-04-25 00:29 10.52644 1.31183 36842 ft 505 kts 14°
2026-04-25 00:30 10.59378 1.33216 36841 ft 505 kts 14°
2026-04-25 00:30 10.64975 1.34906 36843 ft 505 kts 14°
2026-04-25 00:31 10.71704 1.36939 36839 ft 504 kts 14°
2026-04-25 00:31 10.78431 1.38971 36833 ft 504 kts 14°
2026-04-25 00:32 10.85156 1.41005 36833 ft 504 kts 14°
2026-04-25 00:32 10.91879 1.43038 36824 ft 503 kts 14°
2026-04-25 00:33 10.98545 1.45254 36825 ft 506 kts 21°
2026-04-25 00:33 11.04584 1.48986 36819 ft 510 kts 34°
2026-04-25 00:34 11.10265 1.53323 36817 ft 511 kts 35°
2026-04-25 00:34 11.15868 1.57710 36818 ft 512 kts 35°
2026-04-25 00:35 11.21529 1.62121 36815 ft 512 kts 35°
2026-04-25 00:35 11.27194 1.66509 36818 ft 512 kts 35°
2026-04-25 00:36 11.32863 1.70895 36813 ft 512 kts 35°
2026-04-25 00:36 11.38541 1.75290 36812 ft 512 kts 35°
2026-04-25 00:37 11.44213 1.79684 36814 ft 512 kts 35°
2026-04-25 00:37 11.49895 1.84088 36813 ft 512 kts 35°
2026-04-25 00:38 11.55564 1.88484 36810 ft 513 kts 35°
2026-04-25 00:38 11.61215 1.92869 36812 ft 513 kts 35°
2026-04-25 00:39 11.66893 1.97277 36812 ft 513 kts 35°
2026-04-25 00:39 11.72585 2.01698 36812 ft 514 kts 35°
2026-04-25 00:40 11.78270 2.06116 36814 ft 514 kts 35°
2026-04-25 00:40 11.83956 2.10538 36812 ft 514 kts 35°
2026-04-25 00:41 11.89651 2.14968 36809 ft 514 kts 35°
2026-04-25 00:41 11.95354 2.19408 36812 ft 515 kts 34°
2026-04-25 00:42 12.01048 2.23842 36815 ft 515 kts 34°
2026-04-25 00:42 12.06742 2.28278 36814 ft 515 kts 34°
2026-04-25 00:43 12.12437 2.32719 36807 ft 515 kts 34°
2026-04-25 00:43 12.18145 2.37171 36809 ft 516 kts 34°
2026-04-25 00:44 12.23851 2.41625 36805 ft 516 kts 34°
2026-04-25 00:44 12.29558 2.46082 36803 ft 516 kts 34°
2026-04-25 00:45 12.35271 2.50546 36800 ft 517 kts 34°
2026-04-25 00:45 12.40949 2.54986 36800 ft 517 kts 34°
2026-04-25 00:46 12.46701 2.59486 36798 ft 518 kts 34°
2026-04-25 00:47 12.55249 2.66177 36795 ft 518 kts 34°
2026-04-25 00:47 12.60974 2.70663 36796 ft 518 kts 34°
2026-04-25 00:48 12.66693 2.75146 36789 ft 518 kts 34°
2026-04-25 00:48 12.72423 2.79640 36794 ft 518 kts 34°
2026-04-25 00:49 12.78137 2.84124 36790 ft 518 kts 34°
2026-04-25 00:49 12.83862 2.88619 36788 ft 518 kts 34°
2026-04-25 00:50 12.89589 2.93119 36786 ft 518 kts 34°
2026-04-25 00:50 12.95306 2.97613 36789 ft 518 kts 34°
2026-04-25 00:51 13.01027 3.02114 36785 ft 518 kts 34°
2026-04-25 00:51 13.06757 3.06624 36782 ft 519 kts 34°
2026-04-25 00:52 13.12446 3.11105 36781 ft 519 kts 34°
2026-04-25 00:52 13.18167 3.15613 36768 ft 519 kts 34°
2026-04-25 00:53 13.23905 3.20138 36780 ft 519 kts 34°
2026-04-25 00:53 13.29639 3.24662 36780 ft 520 kts 34°
2026-04-25 00:54 13.35380 3.29194 36777 ft 520 kts 34°
2026-04-25 00:54 13.41117 3.33727 36785 ft 520 kts 34°
2026-04-25 00:55 13.46816 3.38231 36780 ft 521 kts 34°
2026-04-25 00:55 13.52561 3.42767 36774 ft 520 kts 34°
2026-04-25 00:56 13.58811 3.46412 36769 ft 514 kts 21°
2026-04-25 00:56 13.65348 3.49412 36770 ft 514 kts 19°
2026-04-25 00:57 13.71905 3.52324 36767 ft 514 kts 19°
2026-04-25 00:57 13.78479 3.55255 36768 ft 514 kts 19°
2026-04-25 00:58 13.84994 3.58181 36768 ft 514 kts 19°
2026-04-25 00:58 13.91544 3.61132 36764 ft 514 kts 19°
2026-04-25 00:59 13.98097 3.64086 36760 ft 514 kts 19°
2026-04-25 00:59 14.04651 3.67042 36758 ft 514 kts 19°
2026-04-25 01:00 14.11207 3.70000 36754 ft 514 kts 19°
2026-04-25 01:00 14.17758 3.72957 36757 ft 514 kts 19°
2026-04-25 01:01 14.24331 3.75927 36755 ft 514 kts 19°
2026-04-25 01:01 14.30883 3.78889 36755 ft 515 kts 19°
2026-04-25 01:02 14.37451 3.81860 36750 ft 515 kts 19°
2026-04-25 01:02 14.44019 3.84833 36752 ft 515 kts 19°
2026-04-25 01:03 14.50546 3.87789 36747 ft 515 kts 19°
2026-04-25 01:03 14.57153 3.90783 36742 ft 515 kts 19°
2026-04-25 01:04 14.63680 3.93744 36747 ft 516 kts 19°
2026-04-25 01:04 14.70253 3.96727 36750 ft 516 kts 19°
2026-04-25 01:05 14.76830 3.99713 36744 ft 516 kts 19°
2026-04-25 01:05 14.83402 4.02700 36741 ft 516 kts 19°
2026-04-25 01:06 14.89986 4.05693 36743 ft 516 kts 19°
2026-04-25 01:06 14.96554 4.08682 36743 ft 516 kts 19°
2026-04-25 01:07 15.03101 4.11663 36742 ft 517 kts 19°
2026-04-25 01:07 15.09680 4.14661 36744 ft 517 kts 19°
2026-04-25 01:08 15.16270 4.17665 36740 ft 517 kts 19°
2026-04-25 01:08 15.22856 4.20670 36739 ft 517 kts 19°
2026-04-25 01:09 15.29444 4.23677 36742 ft 518 kts 19°
2026-04-25 01:09 15.36036 4.26689 36743 ft 518 kts 19°
2026-04-25 01:10 15.42631 4.29704 36747 ft 518 kts 19°
2026-04-25 01:10 15.49230 4.32724 36746 ft 518 kts 19°
2026-04-25 01:11 15.55828 4.35745 36746 ft 519 kts 19°
2026-04-25 01:11 15.62402 4.38756 36745 ft 519 kts 19°
2026-04-25 01:12 15.69008 4.41785 36748 ft 519 kts 19°
2026-04-25 01:12 15.75634 4.44825 36746 ft 520 kts 19°
2026-04-25 01:13 15.82244 4.47860 36748 ft 520 kts 18°
2026-04-25 01:13 15.88870 4.50904 36749 ft 520 kts 18°
2026-04-25 01:14 15.95495 4.53950 36749 ft 520 kts 18°
2026-04-25 01:14 16.02110 4.56994 36744 ft 521 kts 18°
2026-04-25 01:15 16.08566 4.60520 36747 ft 526 kts 25°
2026-04-25 01:15 16.14874 4.64388 36746 ft 527 kts 26°
2026-04-25 01:16 16.21167 4.68303 36747 ft 528 kts 26°
2026-04-25 01:16 16.27473 4.72223 36747 ft 528 kts 26°
2026-04-25 01:17 16.33740 4.76110 36746 ft 528 kts 25°
2026-04-25 01:17 16.40092 4.80048 36751 ft 528 kts 25°
2026-04-25 01:18 16.46371 4.83945 36751 ft 529 kts 25°
2026-04-25 01:18 16.52688 4.87868 36750 ft 529 kts 25°
2026-04-25 01:19 16.59018 4.91802 36750 ft 529 kts 25°
2026-04-25 01:19 16.64312 4.95095 36749 ft 529 kts 25°
2026-04-25 01:20 16.70606 4.99013 36752 ft 530 kts 25°
2026-04-25 01:20 16.76946 5.02963 36753 ft 530 kts 25°
2026-04-25 01:21 16.83276 5.06909 36757 ft 531 kts 25°
2026-04-25 01:21 16.89619 5.10866 36754 ft 531 kts 25°
2026-04-25 01:22 16.95974 5.14834 36753 ft 531 kts 25°
2026-04-25 01:22 17.02319 5.18799 36750 ft 532 kts 25°
2026-04-25 01:23 17.08665 5.22769 36748 ft 532 kts 25°
2026-04-25 01:23 17.15030 5.26752 36752 ft 533 kts 25°
2026-04-25 01:24 17.21347 5.30709 36748 ft 533 kts 25°
2026-04-25 01:24 17.27708 5.34697 36749 ft 534 kts 25°
2026-04-25 01:25 17.34087 5.38699 36752 ft 534 kts 25°
2026-04-25 01:25 17.40462 5.42702 36751 ft 535 kts 25°
2026-04-25 01:26 17.46850 5.46717 36751 ft 535 kts 25°
2026-04-25 01:26 17.53236 5.50734 36750 ft 536 kts 25°
2026-04-25 01:27 17.59649 5.54771 36749 ft 537 kts 25°
2026-04-25 01:27 17.66049 5.58803 36750 ft 537 kts 25°
2026-04-25 01:28 17.75617 5.64839 36751 ft 537 kts 25°
2026-04-25 01:28 17.82067 5.68764 36758 ft 532 kts 19°
2026-04-25 01:29 17.88891 5.71678 36754 ft 527 kts 14°
2026-04-25 01:29 17.95767 5.74368 36746 ft 527 kts 13°
2026-04-25 01:30 18.02651 5.77032 36748 ft 527 kts 13°
2026-04-25 01:30 18.09533 5.79715 36748 ft 528 kts 13°
2026-04-25 01:31 18.16413 5.82412 36749 ft 528 kts 14°
2026-04-25 01:31 18.23308 5.85120 36745 ft 528 kts 13°
2026-04-25 01:32 18.30190 5.87825 36745 ft 528 kts 13°
2026-04-25 01:32 18.37026 5.90513 36753 ft 528 kts 13°
2026-04-25 01:33 18.43917 5.93225 36751 ft 529 kts 13°
2026-04-25 01:33 18.50803 5.95938 36749 ft 529 kts 13°
2026-04-25 01:34 18.57699 5.98657 36752 ft 529 kts 13°
2026-04-25 01:34 18.64602 6.01380 36753 ft 529 kts 13°
2026-04-25 01:35 18.71499 6.04104 36757 ft 529 kts 13°
2026-04-25 01:35 18.78390 6.06828 36753 ft 529 kts 13°
2026-04-25 01:36 18.85300 6.09562 36754 ft 529 kts 13°
2026-04-25 01:36 18.92151 6.12275 36757 ft 529 kts 13°
2026-04-25 01:37 18.99049 6.15009 36759 ft 529 kts 13°
2026-04-25 01:37 19.05946 6.17744 36762 ft 529 kts 13°
2026-04-25 01:38 19.12844 6.20483 36756 ft 529 kts 13°
2026-04-25 01:38 19.19729 6.23219 36763 ft 529 kts 13°
2026-04-25 01:39 19.26631 6.25964 36762 ft 530 kts 13°
2026-04-25 01:39 19.33537 6.28713 36760 ft 530 kts 13°
2026-04-25 01:40 19.40435 6.31462 36767 ft 530 kts 13°
2026-04-25 01:40 19.47341 6.34216 36760 ft 530 kts 13°
2026-04-25 01:41 19.54246 6.36972 36756 ft 530 kts 13°
2026-04-25 01:41 19.61158 6.39734 36765 ft 530 kts 13°
2026-04-25 01:42 19.68068 6.42498 36768 ft 531 kts 13°
2026-04-25 01:42 19.74967 6.45259 36771 ft 531 kts 13°
2026-04-25 01:43 19.81842 6.48014 36768 ft 531 kts 13°
2026-04-25 01:43 19.88760 6.50788 36772 ft 531 kts 13°
2026-04-25 01:44 19.95688 6.53568 36772 ft 532 kts 13°
2026-04-25 01:44 20.02608 6.56349 36777 ft 532 kts 13°
2026-04-25 01:45 20.09663 6.58267 36773 ft 513 kts 357°
2026-04-25 01:45 20.13183 6.58316 36776 ft 500 kts 347°
2026-04-25 01:45 20.16571 6.57744 36780 ft 487 kts 337°
2026-04-25 01:46 20.22884 6.55398 36773 ft 479 kts 330°
2026-04-25 01:46 20.29069 6.52751 36780 ft 479 kts 329°
2026-04-25 01:47 20.35250 6.50091 36785 ft 479 kts 330°
2026-04-25 01:47 20.41447 6.47458 36789 ft 480 kts 330°
2026-04-25 01:48 20.47656 6.44835 36789 ft 480 kts 330°
2026-04-25 01:48 20.53872 6.42211 36791 ft 480 kts 330°
2026-04-25 01:49 20.60054 6.39597 36792 ft 480 kts 330°
2026-04-25 01:49 20.66271 6.36965 36797 ft 480 kts 330°
2026-04-25 01:50 20.72485 6.34332 36797 ft 481 kts 330°
2026-04-25 01:50 20.78704 6.31694 36802 ft 480 kts 330°
2026-04-25 01:51 20.84924 6.29054 36801 ft 480 kts 330°
2026-04-25 01:51 20.91127 6.26418 36805 ft 480 kts 330°
2026-04-25 01:52 20.97344 6.23774 36808 ft 480 kts 330°
2026-04-25 01:52 21.03547 6.21134 36810 ft 480 kts 330°
2026-04-25 01:53 21.09761 6.18486 36811 ft 480 kts 330°
2026-04-25 01:53 21.15953 6.15847 36805 ft 479 kts 330°
2026-04-25 01:54 21.22115 6.13217 36809 ft 479 kts 330°
2026-04-25 01:54 21.28293 6.10578 36810 ft 478 kts 330°
2026-04-25 01:55 21.34482 6.07932 36812 ft 478 kts 330°
2026-04-25 01:55 21.40654 6.05290 36813 ft 477 kts 330°
2026-04-25 01:56 21.46830 6.02644 36817 ft 477 kts 329°
2026-04-25 01:56 21.53007 5.99995 36820 ft 477 kts 329°
2026-04-25 01:57 21.62243 5.96031 36816 ft 477 kts 329°
2026-04-25 01:58 21.68409 5.93381 36806 ft 476 kts 329°
2026-04-25 01:58 21.74524 5.90751 36831 ft 476 kts 329°
2026-04-25 01:59 21.80670 5.88104 36820 ft 476 kts 329°
2026-04-25 01:59 21.86817 5.85455 36827 ft 476 kts 329°
2026-04-25 02:00 21.92975 5.82799 36826 ft 476 kts 329°
2026-04-25 02:00 21.99124 5.80144 36832 ft 476 kts 329°
2026-04-25 02:01 22.05271 5.77487 36835 ft 476 kts 329°
2026-04-25 02:01 22.11420 5.74827 36839 ft 476 kts 329°
2026-04-25 02:02 22.17569 5.72165 36848 ft 476 kts 329°
2026-04-25 02:02 22.23678 5.69518 36845 ft 476 kts 329°
2026-04-25 02:03 22.29828 5.66850 36848 ft 476 kts 329°
2026-04-25 02:03 22.35967 5.64185 36852 ft 476 kts 329°
2026-04-25 02:04 22.42106 5.61517 36862 ft 476 kts 329°
2026-04-25 02:04 22.48249 5.58844 36879 ft 476 kts 329°
2026-04-25 02:05 22.53361 5.56618 36914 ft 476 kts 329°
2026-04-25 02:05 22.59505 5.53940 36960 ft 476 kts 329°
2026-04-25 02:06 22.65654 5.51258 37005 ft 476 kts 329°
2026-04-25 02:06 22.71800 5.48575 37040 ft 476 kts 329°
2026-04-25 02:07 22.77946 5.45893 37041 ft 477 kts 329°
2026-04-25 02:07 22.84428 5.44053 37041 ft 491 kts 341°
2026-04-25 02:08 22.91208 5.42882 37042 ft 494 kts 342°
2026-04-25 02:08 22.98009 5.41808 37012 ft 494 kts 342°
2026-04-25 02:09 23.04810 5.40721 36977 ft 494 kts 342°
2026-04-25 02:09 23.11606 5.39615 36947 ft 494 kts 342°
2026-04-25 02:10 23.18398 5.38501 36930 ft 493 kts 342°
2026-04-25 02:10 23.25193 5.37387 36929 ft 493 kts 342°
2026-04-25 02:11 23.31938 5.36278 36928 ft 493 kts 342°
2026-04-25 02:11 23.38720 5.35163 36926 ft 493 kts 342°
2026-04-25 02:12 23.45499 5.34046 36926 ft 493 kts 342°
2026-04-25 02:12 23.52291 5.32929 36924 ft 493 kts 342°
2026-04-25 02:13 23.59080 5.31810 36918 ft 492 kts 342°
2026-04-25 02:13 23.65853 5.30691 36915 ft 492 kts 342°
2026-04-25 02:14 23.72625 5.29571 36915 ft 492 kts 342°
2026-04-25 02:14 23.79346 5.28460 36909 ft 492 kts 342°
2026-04-25 02:15 23.86103 5.27342 36910 ft 491 kts 342°
2026-04-25 02:15 23.92874 5.26218 36909 ft 491 kts 342°
2026-04-25 02:16 23.99627 5.25098 36907 ft 491 kts 342°
2026-04-25 02:16 24.06387 5.23975 36912 ft 491 kts 342°
2026-04-25 02:17 24.13143 5.22852 36913 ft 490 kts 342°
2026-04-25 02:17 24.19886 5.21729 36914 ft 490 kts 342°
2026-04-25 02:18 24.26642 5.20603 36912 ft 490 kts 342°
2026-04-25 02:18 24.33381 5.19479 36911 ft 490 kts 342°
2026-04-25 02:19 24.40118 5.18354 36909 ft 490 kts 342°
2026-04-25 02:19 24.46853 5.17228 36914 ft 489 kts 342°
2026-04-25 02:20 24.53548 5.16107 36904 ft 490 kts 342°
2026-04-25 02:20 24.60287 5.14978 36906 ft 489 kts 342°
2026-04-25 02:21 24.67012 5.13851 36904 ft 489 kts 342°
2026-04-25 02:21 24.73740 5.12722 36903 ft 488 kts 342°
2026-04-25 02:22 24.80454 5.11594 36901 ft 488 kts 342°
2026-04-25 02:22 24.87165 5.10463 36900 ft 487 kts 343°
2026-04-25 02:23 24.93861 5.09334 36899 ft 487 kts 343°
2026-04-25 02:23 25.00570 5.08202 36904 ft 487 kts 343°
2026-04-25 02:24 25.07271 5.07071 36904 ft 487 kts 343°
2026-04-25 02:24 25.13963 5.05941 36900 ft 487 kts 343°
2026-04-25 02:25 25.20658 5.04810 36906 ft 486 kts 343°
2026-04-25 02:25 25.27346 5.03678 36909 ft 486 kts 343°
2026-04-25 02:26 25.33999 5.02549 36910 ft 486 kts 343°
2026-04-25 02:26 25.40685 5.01414 36916 ft 486 kts 343°
2026-04-25 02:27 25.47375 5.00277 36920 ft 486 kts 343°
2026-04-25 02:27 25.54054 4.99139 36927 ft 486 kts 343°
2026-04-25 02:28 25.60746 4.97999 36923 ft 486 kts 343°
2026-04-25 02:28 25.67439 4.96856 36925 ft 486 kts 343°
2026-04-25 02:29 25.74109 4.95718 36919 ft 485 kts 343°
2026-04-25 02:29 25.80786 4.94577 36927 ft 485 kts 343°
2026-04-25 02:30 25.87419 4.93442 36916 ft 485 kts 343°
2026-04-25 02:30 25.94080 4.92301 36915 ft 485 kts 343°
2026-04-25 02:31 26.00754 4.91156 36906 ft 485 kts 343°
2026-04-25 02:31 26.07421 4.90011 36900 ft 484 kts 343°
2026-04-25 02:32 26.14082 4.88865 36895 ft 484 kts 343°
2026-04-25 02:32 26.20736 4.87717 36893 ft 483 kts 343°
2026-04-25 02:33 26.27384 4.86571 36888 ft 484 kts 343°
2026-04-25 02:33 26.34039 4.85425 36883 ft 484 kts 343°
2026-04-25 02:34 26.40661 4.84283 36877 ft 484 kts 343°
2026-04-25 02:34 26.47317 4.83134 36871 ft 484 kts 343°
2026-04-25 02:35 26.53966 4.81982 36869 ft 483 kts 343°
2026-04-25 02:35 26.60609 4.80830 36863 ft 483 kts 344°
2026-04-25 02:36 26.67263 4.79676 36861 ft 483 kts 344°
2026-04-25 02:36 26.73910 4.78522 36862 ft 483 kts 344°
2026-04-25 02:37 26.80545 4.77368 36862 ft 482 kts 344°
2026-04-25 02:37 26.87179 4.76212 36864 ft 482 kts 344°
2026-04-25 02:38 26.93820 4.75054 36860 ft 482 kts 344°
2026-04-25 02:38 27.00447 4.73897 36859 ft 482 kts 344°
2026-04-25 02:39 27.07075 4.72739 36861 ft 482 kts 344°
2026-04-25 02:39 27.13664 4.71586 36863 ft 482 kts 344°
2026-04-25 02:40 27.20282 4.70427 36863 ft 481 kts 344°
2026-04-25 02:40 27.26913 4.69264 36867 ft 481 kts 345°
2026-04-25 02:41 27.33524 4.68104 36868 ft 481 kts 345°
2026-04-25 02:41 27.40144 4.66940 36865 ft 481 kts 345°
2026-04-25 02:42 27.46761 4.65775 36866 ft 481 kts 345°
2026-04-25 02:42 27.53371 4.64610 36862 ft 481 kts 345°
2026-04-25 02:43 27.59985 4.63443 36864 ft 481 kts 345°
2026-04-25 02:43 27.66594 4.62276 36873 ft 481 kts 345°
2026-04-25 02:44 27.73206 4.61106 36864 ft 480 kts 345°
2026-04-25 02:44 27.79816 4.59935 36870 ft 480 kts 345°
2026-04-25 02:45 27.86375 4.58772 36870 ft 480 kts 345°
2026-04-25 02:45 27.92982 4.57599 36871 ft 480 kts 345°
2026-04-25 02:46 27.99580 4.56427 36873 ft 480 kts 345°
2026-04-25 02:46 28.06183 4.55253 36873 ft 480 kts 345°
2026-04-25 02:47 28.12774 4.54078 36872 ft 480 kts 345°
2026-04-25 02:47 28.19377 4.52900 36872 ft 480 kts 345°
2026-04-25 02:48 28.25973 4.51722 36876 ft 480 kts 345°
2026-04-25 02:48 28.32570 4.50542 36876 ft 479 kts 345°
2026-04-25 02:49 28.39164 4.49361 36878 ft 479 kts 345°
2026-04-25 02:49 28.45758 4.48179 36877 ft 479 kts 345°
2026-04-25 02:50 28.52304 4.47005 36880 ft 479 kts 346°
2026-04-25 02:50 28.58894 4.45853 36878 ft 479 kts 346°
2026-04-25 02:51 28.65501 4.44707 36876 ft 479 kts 346°
2026-04-25 02:51 28.72088 4.43558 36878 ft 479 kts 346°
2026-04-25 02:52 28.78670 4.42406 36880 ft 479 kts 346°
2026-04-25 02:52 28.84145 4.41446 36874 ft 478 kts 346°
2026-04-25 02:53 28.90726 4.40290 36878 ft 478 kts 346°
2026-04-25 02:53 28.97285 4.39136 36867 ft 477 kts 346°
2026-04-25 02:54 29.03842 4.37982 36859 ft 476 kts 346°
2026-04-25 02:54 29.10387 4.36828 36878 ft 476 kts 346°
2026-04-25 02:55 29.16949 4.35668 36865 ft 476 kts 346°
2026-04-25 02:55 29.23480 4.34515 36864 ft 475 kts 346°
2026-04-25 02:56 29.30028 4.33358 36861 ft 475 kts 346°
2026-04-25 02:56 29.36564 4.32201 36861 ft 475 kts 346°
2026-04-25 02:57 29.43051 4.31049 36860 ft 474 kts 346°
2026-04-25 02:57 29.49566 4.29890 36861 ft 474 kts 346°
2026-04-25 02:58 29.56084 4.28730 36859 ft 474 kts 346°
2026-04-25 02:58 29.62596 4.27570 36859 ft 473 kts 346°
2026-04-25 02:59 29.69088 4.26412 36858 ft 473 kts 346°
2026-04-25 02:59 29.75599 4.25260 36863 ft 473 kts 346°
2026-04-25 03:00 29.82098 4.24123 36863 ft 472 kts 346°
2026-04-25 03:00 29.88597 4.22985 36865 ft 472 kts 346°
2026-04-25 03:01 29.95086 4.21846 36863 ft 472 kts 346°
2026-04-25 03:01 30.01577 4.20704 36865 ft 472 kts 346°
2026-04-25 03:02 30.08075 4.19558 36870 ft 472 kts 346°
2026-04-25 03:02 30.14570 4.18413 36866 ft 473 kts 346°
2026-04-25 03:03 30.21068 4.17266 36870 ft 473 kts 346°
2026-04-25 03:03 30.27580 4.16114 36868 ft 473 kts 346°
2026-04-25 03:04 30.34044 4.14970 36875 ft 473 kts 345°
2026-04-25 03:04 30.40587 4.13810 36884 ft 473 kts 345°
2026-04-25 03:05 30.50352 4.12075 36884 ft 473 kts 346°
2026-04-25 03:05 30.56859 4.10918 36885 ft 473 kts 345°
2026-04-25 03:06 30.63371 4.09758 36889 ft 473 kts 345°
2026-04-25 03:06 30.69834 4.08605 36891 ft 473 kts 345°
2026-04-25 03:07 30.76352 4.07440 36897 ft 474 kts 345°
2026-04-25 03:07 30.82886 4.06271 36894 ft 474 kts 345°
2026-04-25 03:08 30.89412 4.05102 36899 ft 475 kts 345°
2026-04-25 03:08 30.95951 4.03929 36901 ft 475 kts 345°
2026-04-25 03:09 31.02493 4.02754 36902 ft 476 kts 345°
2026-04-25 03:09 31.09038 4.01577 36909 ft 476 kts 345°
2026-04-25 03:10 31.15583 4.00398 36910 ft 476 kts 345°
2026-04-25 03:10 31.22149 3.99213 36913 ft 477 kts 345°
2026-04-25 03:11 31.28708 3.98029 36917 ft 477 kts 345°
2026-04-25 03:11 31.35231 3.96849 36918 ft 477 kts 345°
2026-04-25 03:12 31.41792 3.95660 36928 ft 477 kts 345°
2026-04-25 03:12 31.48356 3.94470 36929 ft 477 kts 345°
2026-04-25 03:13 31.54927 3.93276 36933 ft 477 kts 345°
2026-04-25 03:13 31.61493 3.92081 36936 ft 477 kts 345°
2026-04-25 03:14 31.68062 3.90884 36934 ft 477 kts 345°
2026-04-25 03:14 31.74624 3.89687 36941 ft 477 kts 346°
2026-04-25 03:15 31.81136 3.88498 36948 ft 477 kts 346°
2026-04-25 03:15 31.87696 3.87298 36950 ft 477 kts 346°
2026-04-25 03:16 31.94248 3.86097 36956 ft 477 kts 346°
2026-04-25 03:16 32.00811 3.84893 36958 ft 477 kts 346°
2026-04-25 03:17 32.07378 3.83685 36985 ft 478 kts 346°
2026-04-25 03:17 32.13950 3.82476 37015 ft 478 kts 346°
2026-04-25 03:18 32.20519 3.81265 37042 ft 478 kts 346°
2026-04-25 03:18 32.27094 3.80051 37069 ft 478 kts 346°
2026-04-25 03:19 32.33672 3.78835 37078 ft 478 kts 346°
2026-04-25 03:19 32.40324 3.78101 37071 ft 486 kts 357°
2026-04-25 03:20 32.47058 3.78828 37078 ft 489 kts
2026-04-25 03:20 32.53828 3.79813 37056 ft 490 kts
2026-04-25 03:21 32.60591 3.80823 37028 ft 490 kts
2026-04-25 03:21 32.67349 3.81811 37009 ft 490 kts
2026-04-25 03:22 32.74124 3.82790 37004 ft 490 kts
2026-04-25 03:22 32.80888 3.83766 37001 ft 490 kts
2026-04-25 03:23 32.87661 3.84746 37002 ft 490 kts
2026-04-25 03:23 32.94424 3.85726 37012 ft 489 kts
2026-04-25 03:24 33.01175 3.86706 37016 ft 489 kts
2026-04-25 03:24 33.07940 3.87683 37020 ft 489 kts
2026-04-25 03:25 33.14662 3.88655 37024 ft 489 kts
2026-04-25 03:25 33.21421 3.89634 37027 ft 490 kts
2026-04-25 03:26 33.28192 3.90618 37030 ft 490 kts
2026-04-25 03:26 33.34959 3.91601 37031 ft 491 kts
2026-04-25 03:27 33.41754 3.92590 37033 ft 491 kts
2026-04-25 03:27 33.48530 3.93578 37038 ft 491 kts
2026-04-25 03:28 33.55319 3.94568 37035 ft 491 kts
2026-04-25 03:28 33.62105 3.95561 37040 ft 492 kts
2026-04-25 03:29 33.68898 3.96556 37037 ft 492 kts
2026-04-25 03:29 33.75655 3.97546 37040 ft 492 kts
2026-04-25 03:30 33.82448 3.98544 37044 ft 492 kts
2026-04-25 03:30 33.89251 3.99545 37040 ft 492 kts
2026-04-25 03:31 33.96055 4.00548 37038 ft 492 kts
2026-04-25 03:31 34.02848 4.01550 37043 ft 492 kts
2026-04-25 03:32 34.09651 4.02556 37052 ft 492 kts
2026-04-25 03:32 34.16452 4.03562 37047 ft 492 kts
2026-04-25 03:33 34.23261 4.04550 37053 ft 493 kts
2026-04-25 03:33 34.30072 4.05541 37057 ft 493 kts
2026-04-25 03:34 34.36889 4.06538 37060 ft 494 kts
2026-04-25 03:34 34.43719 4.07541 37061 ft 494 kts
2026-04-25 03:35 34.49403 4.08376 37063 ft 495 kts
2026-04-25 03:35 34.57397 4.09555 37067 ft 495 kts
2026-04-25 03:36 34.64237 4.10564 37066 ft 496 kts
2026-04-25 03:36 34.71095 4.11577 37071 ft 496 kts
2026-04-25 03:37 34.76785 4.12419 37071 ft 496 kts
2026-04-25 03:37 34.84756 4.13600 37069 ft 496 kts
2026-04-25 03:38 34.91604 4.14617 37072 ft 496 kts
2026-04-25 03:38 34.98456 4.15637 37073 ft 496 kts
2026-04-25 03:39 35.04168 4.16487 37071 ft 496 kts
2026-04-25 03:39 35.11025 4.17511 37067 ft 496 kts
2026-04-25 03:40 35.17871 4.18535 37065 ft 496 kts
2026-04-25 03:40 35.24724 4.19560 37066 ft 496 kts
2026-04-25 03:41 35.31563 4.19681 37065 ft 489 kts 349°
2026-04-25 03:41 35.37996 4.17298 37062 ft 480 kts 330°
2026-04-25 03:42 35.43803 4.13308 37063 ft 479 kts 326°
2026-04-25 03:42 35.49483 4.09132 37063 ft 479 kts 326°
2026-04-25 03:43 35.55238 4.04897 37063 ft 480 kts 326°
2026-04-25 03:43 35.60943 4.00731 37061 ft 480 kts 327°
2026-04-25 03:44 35.66696 3.96538 37061 ft 480 kts 327°
2026-04-25 03:44 35.72459 3.92363 37066 ft 481 kts 327°
2026-04-25 03:45 35.78240 3.88195 37065 ft 481 kts 327°
2026-04-25 03:45 35.84014 3.84021 37066 ft 481 kts 327°
2026-04-25 03:46 35.89787 3.79835 37069 ft 481 kts 327°
2026-04-25 03:46 35.95565 3.75636 37071 ft 482 kts 327°
2026-04-25 03:47 36.01330 3.71440 37070 ft 481 kts 327°
2026-04-25 03:47 36.07066 3.67257 37075 ft 481 kts 327°
2026-04-25 03:48 36.12826 3.63050 37076 ft 481 kts 327°
2026-04-25 03:48 36.18600 3.58826 37074 ft 481 kts 328°
2026-04-25 03:49 36.24360 3.54604 37067 ft 481 kts 328°
2026-04-25 03:49 36.30116 3.50378 37067 ft 480 kts 328°
2026-04-25 03:50 36.35861 3.46153 37068 ft 480 kts 328°
2026-04-25 03:50 36.41602 3.41923 37062 ft 480 kts 328°
2026-04-25 03:51 36.47324 3.37699 37054 ft 480 kts 328°
2026-04-25 03:51 36.53063 3.33456 37053 ft 480 kts 328°
2026-04-25 03:52 36.58800 3.29207 37051 ft 480 kts 328°
2026-04-25 03:52 36.64534 3.24953 37048 ft 480 kts 328°
2026-04-25 03:53 36.70264 3.20695 37048 ft 480 kts 328°
2026-04-25 03:53 36.75948 3.16293 37048 ft 480 kts 326°
2026-04-25 03:54 36.81566 3.11819 37049 ft 480 kts 326°
2026-04-25 03:54 36.87197 3.07354 37052 ft 480 kts 326°
2026-04-25 03:55 36.92846 3.02896 37054 ft 480 kts 326°
2026-04-25 03:55 36.98488 2.98444 37053 ft 480 kts 326°
2026-04-25 03:56 37.04106 2.94003 37058 ft 480 kts 326°
2026-04-25 03:56 37.09760 2.89524 37059 ft 480 kts 326°
2026-04-25 03:57 37.15399 2.85049 37061 ft 480 kts 326°
2026-04-25 03:57 37.21048 2.80557 37061 ft 480 kts 326°
2026-04-25 03:58 37.26685 2.76066 37061 ft 480 kts 326°
2026-04-25 03:58 37.32294 2.71590 37064 ft 480 kts 326°
2026-04-25 03:59 37.37939 2.67077 37066 ft 480 kts 326°
2026-04-25 03:59 37.43580 2.62561 37067 ft 480 kts 326°
2026-04-25 04:00 37.49218 2.58038 37070 ft 480 kts 326°
2026-04-25 04:00 37.54849 2.53512 37071 ft 480 kts 326°
2026-04-25 04:01 37.60451 2.49000 37068 ft 480 kts 326°
2026-04-25 04:01 37.66083 2.44457 37075 ft 480 kts 326°
2026-04-25 04:02 37.71713 2.39906 37073 ft 480 kts 326°
2026-04-25 04:02 37.77344 2.35347 37077 ft 480 kts 326°
2026-04-25 04:03 37.82977 2.30813 37074 ft 480 kts 327°
2026-04-25 04:03 37.88712 2.26466 37078 ft 481 kts 328°
2026-04-25 04:04 37.94461 2.22159 37078 ft 481 kts 327°
2026-04-25 04:04 38.00215 2.17802 37082 ft 481 kts 327°
2026-04-25 04:05 38.05948 2.13426 37084 ft 481 kts 327°
2026-04-25 04:05 38.11676 2.09039 37083 ft 481 kts 327°
2026-04-25 04:06 38.17398 2.04650 37086 ft 481 kts 327°
2026-04-25 04:06 38.23122 2.00253 37089 ft 480 kts 327°
2026-04-25 04:07 38.28847 1.95849 37088 ft 480 kts 327°
2026-04-25 04:07 38.34556 1.91448 37090 ft 480 kts 327°
2026-04-25 04:08 38.40272 1.87042 37094 ft 480 kts 327°
2026-04-25 04:08 38.45940 1.82651 37095 ft 479 kts 327°
2026-04-25 04:09 38.51641 1.78226 37095 ft 479 kts 327°
2026-04-25 04:09 38.57329 1.73809 37094 ft 479 kts 327°
2026-04-25 04:10 38.63019 1.69382 37097 ft 478 kts 327°
2026-04-25 04:10 38.68713 1.64943 37099 ft 478 kts 327°
2026-04-25 04:11 38.77229 1.58288 37100 ft 478 kts 327°
2026-04-25 04:12 38.82905 1.53842 37104 ft 478 kts 327°
2026-04-25 04:12 38.88613 1.49469 37100 ft 479 kts 332°
2026-04-25 04:13 38.94923 1.46714 37104 ft 482 kts 349°
2026-04-25 04:13 39.01588 1.45641 37102 ft 483 kts 353°
2026-04-25 04:14 39.08285 1.44803 37104 ft 484 kts 353°
2026-04-25 04:14 39.14993 1.43971 37105 ft 485 kts 353°
2026-04-25 04:15 39.21714 1.43110 37105 ft 485 kts 353°
2026-04-25 04:15 39.28424 1.42235 37106 ft 485 kts 353°
2026-04-25 04:16 39.35159 1.41353 37107 ft 486 kts 353°
2026-04-25 04:16 39.41842 1.40482 37106 ft 486 kts 353°
2026-04-25 04:17 39.48572 1.39595 37111 ft 486 kts 353°
2026-04-25 04:17 39.55303 1.38703 37110 ft 486 kts 353°
2026-04-25 04:18 39.62035 1.37813 37111 ft 486 kts 353°
2026-04-25 04:18 39.68760 1.36925 37111 ft 486 kts 353°
2026-04-25 04:19 39.75484 1.36031 37111 ft 486 kts 353°
2026-04-25 04:19 39.82206 1.35136 37110 ft 485 kts 353°
2026-04-25 04:20 39.88918 1.34242 37115 ft 485 kts 353°
2026-04-25 04:20 39.95642 1.33345 37114 ft 485 kts 353°
2026-04-25 04:21 40.02346 1.32448 37116 ft 484 kts 353°
2026-04-25 04:21 40.09056 1.31549 37116 ft 485 kts 353°
2026-04-25 04:22 40.15771 1.30648 37116 ft 485 kts 353°
2026-04-25 04:22 40.22442 1.29750 37114 ft 485 kts 353°
2026-04-25 04:23 40.29158 1.28845 37120 ft 485 kts 353°
2026-04-25 04:23 40.35889 1.27936 37122 ft 485 kts 353°
2026-04-25 04:24 40.42603 1.27028 37124 ft 486 kts 353°
2026-04-25 04:24 40.49328 1.26115 37120 ft 486 kts 353°
2026-04-25 04:25 40.56056 1.25200 37120 ft 486 kts 353°
2026-04-25 04:25 40.62788 1.24284 37121 ft 486 kts 353°
2026-04-25 04:26 40.68378 1.23521 37124 ft 486 kts 353°
2026-04-25 04:26 40.75118 1.22600 37122 ft 486 kts 353°
2026-04-25 04:27 40.81836 1.21679 37126 ft 486 kts 353°
2026-04-25 04:27 40.88569 1.20756 37127 ft 486 kts 353°
2026-04-25 04:28 40.95296 1.19829 37128 ft 486 kts 353°
2026-04-25 04:28 41.02019 1.18903 37128 ft 485 kts 353°
2026-04-25 04:29 41.08731 1.17977 37131 ft 485 kts 353°
2026-04-25 04:29 41.15436 1.17049 37127 ft 485 kts 353°
2026-04-25 04:30 41.22165 1.16263 37127 ft 485 kts 355°
2026-04-25 04:30 41.28890 1.15617 37131 ft 485 kts 355°
2026-04-25 04:31 41.35610 1.14949 37132 ft 484 kts 355°
2026-04-25 04:31 41.42334 1.14253 37130 ft 484 kts 355°
2026-04-25 04:32 41.49060 1.13544 37134 ft 484 kts 355°
2026-04-25 04:32 41.55744 1.12839 37134 ft 484 kts 355°
2026-04-25 04:33 41.62470 1.12132 37135 ft 484 kts 355°
2026-04-25 04:33 41.69170 1.11418 37133 ft 484 kts 355°
2026-04-25 04:34 41.75890 1.10709 37130 ft 484 kts 355°
2026-04-25 04:34 41.82601 1.09991 37130 ft 483 kts 354°
2026-04-25 04:35 41.89302 1.09273 37129 ft 483 kts 354°
2026-04-25 04:35 41.95970 1.08559 37132 ft 483 kts 354°
2026-04-25 04:36 42.02668 1.07842 37127 ft 483 kts 354°
2026-04-25 04:36 42.09378 1.07122 37127 ft 483 kts 354°
2026-04-25 04:37 42.16078 1.06401 37128 ft 483 kts 354°
2026-04-25 04:37 42.22783 1.05680 37127 ft 483 kts 354°
2026-04-25 04:38 42.29490 1.04956 37130 ft 483 kts 354°
2026-04-25 04:38 42.36183 1.04234 37128 ft 482 kts 354°
2026-04-25 04:39 42.42868 1.03510 37133 ft 482 kts 354°
2026-04-25 04:39 42.49567 1.02783 37143 ft 482 kts 354°
2026-04-25 04:40 42.56254 1.02051 37137 ft 482 kts 354°
2026-04-25 04:40 42.62941 1.01321 37142 ft 482 kts 354°
2026-04-25 04:41 42.69586 1.00594 37147 ft 482 kts 354°
2026-04-25 04:41 42.76285 0.99811 37137 ft 481 kts 351°
2026-04-25 04:42 42.82816 0.97922 37152 ft 480 kts 345°
2026-04-25 04:42 42.89298 0.95706 37136 ft 480 kts 345°
2026-04-25 04:43 42.95772 0.93446 37154 ft 480 kts 345°
2026-04-25 04:43 43.02196 0.91210 37153 ft 480 kts 345°
2026-04-25 04:44 43.08659 0.88968 37156 ft 479 kts 345°
2026-04-25 04:44 43.15138 0.86718 37153 ft 479 kts 345°
2026-04-25 04:45 43.21602 0.84468 37153 ft 479 kts 345°
2026-04-25 04:45 43.28053 0.82217 37135 ft 479 kts 344°
2026-04-25 04:46 43.34517 0.79956 37155 ft 479 kts 344°
2026-04-25 04:46 43.40970 0.77694 37150 ft 479 kts 344°
2026-04-25 04:47 43.47340 0.75087 37159 ft 477 kts 336°
2026-04-25 04:47 43.53474 0.71597 37154 ft 477 kts 336°
2026-04-25 04:48 43.59590 0.67984 37151 ft 477 kts 335°
2026-04-25 04:48 43.65647 0.64388 37130 ft 477 kts 335°
2026-04-25 04:49 43.71777 0.60755 37135 ft 477 kts 335°
2026-04-25 04:49 43.77837 0.57162 37128 ft 477 kts 335°
2026-04-25 04:50 43.83935 0.53540 37123 ft 477 kts 335°
2026-04-25 04:50 43.90030 0.49912 37125 ft 477 kts 335°
2026-04-25 04:51 43.96115 0.46280 37119 ft 477 kts 335°
2026-04-25 04:51 44.02218 0.42630 37117 ft 477 kts 335°
2026-04-25 04:52 44.08302 0.38982 37121 ft 476 kts 335°
2026-04-25 04:52 44.14393 0.35323 37132 ft 476 kts 335°
2026-04-25 04:53 44.20446 0.31678 37118 ft 476 kts 335°
2026-04-25 04:53 44.26520 0.28011 37119 ft 476 kts 335°
2026-04-25 04:54 44.32600 0.24334 37119 ft 476 kts 335°
2026-04-25 04:54 44.38670 0.20654 37141 ft 476 kts 335°
2026-04-25 04:55 44.44755 0.16957 37144 ft 476 kts 335°
2026-04-25 04:55 44.50836 0.13253 37138 ft 476 kts 335°
2026-04-25 04:56 44.55887 0.10170 37126 ft 475 kts 335°
2026-04-25 04:56 44.62934 0.05860 37128 ft 475 kts 335°
2026-04-25 04:57 44.68997 0.02142 37128 ft 475 kts 335°
2026-04-25 04:57 44.75063 -0.01586 37118 ft 475 kts 335°
2026-04-25 04:58 44.81113 -0.05313 37123 ft 475 kts 335°
2026-04-25 04:58 44.87161 -0.09048 37116 ft 475 kts 335°
2026-04-25 04:59 44.93218 -0.12797 37130 ft 474 kts 335°
2026-04-25 04:59 44.99258 -0.16543 37116 ft 474 kts 335°
2026-04-25 05:00 45.05261 -0.20275 37117 ft 474 kts 335°
2026-04-25 05:00 45.11302 -0.24039 37120 ft 474 kts 335°
2026-04-25 05:01 45.17328 -0.27803 37113 ft 474 kts 335°
2026-04-25 05:01 45.23366 -0.31584 37109 ft 474 kts 335°
2026-04-25 05:02 45.29393 -0.35366 37116 ft 474 kts 335°
2026-04-25 05:02 45.35428 -0.39162 37112 ft 474 kts 335°
2026-04-25 05:03 45.41451 -0.42960 37108 ft 474 kts 335°
2026-04-25 05:03 45.47488 -0.46774 37198 ft 474 kts 334°
2026-04-25 05:03 45.50503 -0.48682 37096 ft 475 kts 335°
2026-04-25 05:04 45.53519 -0.50595 37110 ft 475 kts 335°
2026-04-25 05:04 45.59549 -0.54423 37111 ft 473 kts 335°
2026-04-25 05:05 45.65571 -0.58256 37103 ft 473 kts 335°
2026-04-25 05:05 45.71580 -0.62090 37108 ft 474 kts 335°
2026-04-25 05:06 45.77566 -0.65917 37108 ft 474 kts 335°
2026-04-25 05:06 45.83581 -0.69772 37105 ft 474 kts 334°
2026-04-25 05:07 45.89607 -0.73644 37099 ft 474 kts 334°
2026-04-25 05:07 45.95640 -0.77530 37106 ft 475 kts 334°
2026-04-25 05:08 46.01662 -0.81417 37103 ft 475 kts 334°
2026-04-25 05:08 46.07691 -0.85319 37102 ft 475 kts 334°
2026-04-25 05:09 46.13716 -0.89227 37106 ft 475 kts 334°
2026-04-25 05:09 46.19754 -0.93103 37108 ft 476 kts 337°
2026-04-25 05:10 46.26147 -0.95678 37105 ft 478 kts 346°
2026-04-25 05:10 46.32648 -0.97703 37101 ft 478 kts 347°
2026-04-25 05:11 46.39162 -0.99669 37104 ft 478 kts 347°
2026-04-25 05:11 46.44585 -1.01319 37104 ft 479 kts 346°
2026-04-25 05:12 46.55460 -1.04668 37098 ft 479 kts 346°
2026-04-25 05:12 46.61979 -1.06688 37100 ft 479 kts 346°
2026-04-25 05:13 46.68464 -1.08701 37100 ft 479 kts 346°
2026-04-25 05:13 46.73937 -1.10402 37106 ft 479 kts 346°
2026-04-25 05:14 46.80461 -1.12436 37101 ft 480 kts 346°
2026-04-25 05:15 46.90219 -1.15487 37102 ft 480 kts 346°
2026-04-25 05:15 46.96749 -1.17534 37105 ft 480 kts 346°
2026-04-25 05:16 47.03283 -1.19589 37102 ft 480 kts 346°
2026-04-25 05:16 47.09819 -1.21650 37101 ft 481 kts 346°
2026-04-25 05:17 47.16361 -1.23716 37101 ft 481 kts 346°
2026-04-25 05:17 47.22907 -1.25790 37107 ft 481 kts 346°
2026-04-25 05:18 47.29462 -1.27872 37104 ft 481 kts 346°
2026-04-25 05:18 47.36012 -1.29958 37112 ft 481 kts 346°
2026-04-25 05:19 47.42557 -1.32047 37112 ft 482 kts 346°
2026-04-25 05:19 47.49102 -1.34142 37118 ft 482 kts 346°
2026-04-25 05:20 47.55658 -1.36245 37116 ft 482 kts 346°
2026-04-25 05:20 47.62183 -1.38344 37121 ft 482 kts 346°
2026-04-25 05:21 47.68750 -1.40456 37121 ft 483 kts 346°
2026-04-25 05:21 47.75446 -1.41527 37122 ft 485 kts 355°
2026-04-25 05:22 47.82191 -1.42071 37127 ft 486 kts 355°
2026-04-25 05:22 47.88954 -1.42559 37127 ft 486 kts 355°
2026-04-25 05:23 47.95716 -1.43054 37129 ft 486 kts 355°
2026-04-25 05:23 48.02477 -1.43562 37128 ft 486 kts 355°
2026-04-25 05:24 48.09198 -1.44049 37134 ft 487 kts 355°
2026-04-25 05:24 48.15958 -1.44531 37132 ft 487 kts 355°
2026-04-25 05:25 48.22742 -1.45017 37138 ft 487 kts 355°
2026-04-25 05:25 48.29522 -1.45505 37135 ft 488 kts 355°
2026-04-25 05:26 48.36301 -1.45995 37132 ft 488 kts 355°
2026-04-25 05:26 48.43087 -1.46486 37133 ft 488 kts 355°
2026-04-25 05:27 48.49877 -1.46979 37135 ft 489 kts 355°
2026-04-25 05:27 48.56677 -1.47474 37139 ft 489 kts 355°
2026-04-25 05:28 48.63480 -1.47971 37136 ft 489 kts 355°
2026-04-25 05:28 48.70277 -1.48469 37143 ft 489 kts 355°
2026-04-25 05:29 48.77087 -1.48968 37144 ft 490 kts 355°
2026-04-25 05:29 48.83906 -1.49470 37145 ft 490 kts 355°
2026-04-25 05:30 48.90696 -1.50274 37142 ft 488 kts 348°
2026-04-25 05:30 48.97355 -1.52246 37146 ft 488 kts 346°
2026-04-25 05:31 49.03954 -1.54370 37146 ft 488 kts 346°
2026-04-25 05:31 49.10599 -1.56534 37160 ft 490 kts 346°
2026-04-25 05:32 49.17325 -1.58717 37149 ft 495 kts 346°
2026-04-25 05:32 49.24059 -1.60900 37153 ft 495 kts 346°
2026-04-25 05:33 49.30808 -1.63090 37153 ft 495 kts 346°
2026-04-25 05:33 49.37545 -1.65283 37161 ft 495 kts 345°
2026-04-25 05:34 49.44286 -1.67484 37161 ft 495 kts 345°
2026-04-25 05:34 49.51022 -1.69690 37160 ft 495 kts 345°
2026-04-25 05:35 49.57768 -1.71832 37155 ft 496 kts 349°
2026-04-25 05:35 49.64652 -1.72156 37159 ft 499 kts 360°
2026-04-25 05:36 49.71597 -1.71629 37157 ft 500 kts
2026-04-25 05:36 49.78540 -1.71003 37162 ft 500 kts
2026-04-25 05:37 49.85482 -1.70389 37165 ft 500 kts
2026-04-25 05:37 49.92420 -1.69795 37174 ft 499 kts
2026-04-25 05:38 49.99361 -1.68987 37179 ft 501 kts
2026-04-25 05:38 50.06105 -1.66268 36736 ft 502 kts 15°
2026-04-25 05:38 50.09463 -1.64676 35917 ft 505 kts 15°
2026-04-25 05:39 50.12834 -1.63032 35017 ft 510 kts 16°
2026-04-25 05:39 50.16226 -1.61360 34094 ft 514 kts 16°
2026-04-25 05:39 50.19636 -1.59595 33050 ft 519 kts 20°
2026-04-25 05:39 50.22888 -1.57141 32075 ft 522 kts 31°
2026-04-25 05:40 50.25822 -1.53795 31135 ft 524 kts 42°
2026-04-25 05:40 50.28293 -1.49612 30185 ft 524 kts 54°
2026-04-25 05:40 50.30167 -1.44768 29224 ft 521 kts 66°
2026-04-25 05:40 50.31386 -1.39459 28345 ft 516 kts 77°
2026-04-25 05:41 50.31918 -1.33939 27524 ft 510 kts 89°
2026-04-25 05:41 50.31764 -1.28427 26784 ft 503 kts 100°
2026-04-25 05:41 50.31356 -1.23116 26325 ft 495 kts 93°
2026-04-25 05:41 50.31505 -1.17820 26188 ft 481 kts 84°
2026-04-25 05:42 50.32024 -1.12682 26171 ft 463 kts 81°
2026-04-25 05:42 50.32569 -1.07807 26177 ft 447 kts 81°
2026-04-25 05:42 50.33104 -1.03099 26182 ft 445 kts 81°
2026-04-25 05:42 50.33654 -0.98327 26183 ft 447 kts 81°
2026-04-25 05:43 50.34211 -0.93539 26183 ft 447 kts 81°
2026-04-25 05:43 50.34771 -0.88743 26184 ft 448 kts 81°
2026-04-25 05:43 50.35331 -0.83942 26184 ft 448 kts 80°
2026-04-25 05:43 50.35891 -0.79143 26184 ft 448 kts 80°
2026-04-25 05:44 50.36457 -0.74266 26143 ft 466 kts 80°
2026-04-25 05:44 50.37045 -0.69190 26096 ft 477 kts 80°
2026-04-25 05:44 50.37635 -0.64076 25890 ft 478 kts 80°
2026-04-25 05:44 50.38226 -0.58943 25653 ft 476 kts 80°
2026-04-25 05:45 50.38810 -0.53851 25405 ft 475 kts 80°
2026-04-25 05:45 50.39392 -0.48752 25164 ft 474 kts 80°
2026-04-25 05:45 50.39968 -0.43678 24928 ft 472 kts 80°
2026-04-25 05:45 50.40542 -0.38609 24690 ft 471 kts 80°
2026-04-25 05:46 50.41112 -0.33551 24446 ft 469 kts 80°
2026-04-25 05:46 50.41676 -0.28529 24223 ft 468 kts 80°
2026-04-25 05:46 50.42239 -0.23496 23988 ft 467 kts 80°
2026-04-25 05:46 50.42795 -0.18503 23763 ft 466 kts 80°
2026-04-25 05:47 50.43342 -0.13567 23495 ft 464 kts 80°
2026-04-25 05:47 50.43902 -0.08493 23220 ft 463 kts 80°
2026-04-25 05:47 50.44440 -0.03605 22951 ft 461 kts 80°
2026-04-25 05:47 50.44983 0.01345 22684 ft 459 kts 80°
2026-04-25 05:48 50.45520 0.06273 22426 ft 457 kts 80°
2026-04-25 05:48 50.46052 0.11171 22162 ft 455 kts 80°
2026-04-25 05:48 50.46580 0.16052 21904 ft 453 kts 80°
2026-04-25 05:48 50.47106 0.20932 21646 ft 451 kts 80°
2026-04-25 05:49 50.47626 0.25775 21394 ft 449 kts 80°
2026-04-25 05:49 50.48142 0.30608 21141 ft 448 kts 80°
2026-04-25 05:49 50.48655 0.35431 20890 ft 446 kts 80°
2026-04-25 05:49 50.49162 0.40214 20644 ft 444 kts 80°
2026-04-25 05:50 50.49661 0.44932 20405 ft 442 kts 80°
2026-04-25 05:50 50.50161 0.49691 20154 ft 440 kts 80°
2026-04-25 05:50 50.50656 0.54425 19915 ft 439 kts 80°
2026-04-25 05:50 50.51149 0.59144 19677 ft 437 kts 80°
2026-04-25 05:51 50.51636 0.63841 19433 ft 435 kts 80°
2026-04-25 05:51 50.52126 0.68577 19187 ft 433 kts 80°
2026-04-25 05:51 50.52607 0.73243 18961 ft 431 kts 80°
2026-04-25 05:51 50.53076 0.77818 18726 ft 430 kts 80°
2026-04-25 05:52 50.53549 0.82448 18501 ft 428 kts 80°
2026-04-25 05:52 50.54018 0.87049 18238 ft 426 kts 80°
2026-04-25 05:52 50.54482 0.91625 17968 ft 424 kts 80°
2026-04-25 05:52 50.54945 0.96214 17699 ft 422 kts 80°
2026-04-25 05:53 50.55402 1.00761 17444 ft 421 kts 80°
2026-04-25 05:53 50.55857 1.05300 17180 ft 419 kts 80°
2026-04-25 05:53 50.56307 1.09816 16922 ft 417 kts 80°
2026-04-25 05:53 50.56810 1.14306 16662 ft 415 kts 76°
2026-04-25 05:54 50.57821 1.18527 16415 ft 411 kts 59°
2026-04-25 05:54 50.59526 1.22068 16160 ft 405 kts 43°
2026-04-25 05:54 50.64345 1.26237 15656 ft 394 kts 11°
2026-04-25 05:55 50.67048 1.26627 15420 ft 390 kts 355°
2026-04-25 05:55 50.69706 1.25876 15181 ft 386 kts 340°
2026-04-25 05:55 50.72110 1.24072 14935 ft 383 kts 326°
2026-04-25 05:55 50.74098 1.21397 14694 ft 380 kts 311°
2026-04-25 05:56 50.75594 1.17978 14461 ft 379 kts 297°
2026-04-25 05:56 50.76515 1.14086 14225 ft 377 kts 285°
2026-04-25 05:56 50.77177 1.10084 13976 ft 376 kts 284°
2026-04-25 05:56 50.77829 1.06083 13719 ft 375 kts 284°
2026-04-25 05:57 50.78487 1.02104 13452 ft 374 kts 285°
2026-04-25 05:57 50.79146 0.98137 13197 ft 373 kts 285°
2026-04-25 05:57 50.79806 0.94173 12936 ft 372 kts 285°
2026-04-25 05:57 50.80461 0.90236 12683 ft 371 kts 285°
2026-04-25 05:58 50.81269 0.86386 12418 ft 370 kts 294°
2026-04-25 05:58 50.82597 0.82913 12159 ft 369 kts 308°
2026-04-25 05:58 50.84347 0.79926 11917 ft 369 kts 314°
2026-04-25 05:58 50.86163 0.77066 11668 ft 368 kts 314°
2026-04-25 05:59 50.87971 0.74195 11419 ft 368 kts 314°
2026-04-25 05:59 50.89771 0.71317 11174 ft 367 kts 314°
2026-04-25 05:59 50.90956 0.69417 11009 ft 366 kts 314°
2026-04-25 05:59 50.93354 0.65566 10685 ft 365 kts 314°
2026-04-25 06:00 50.94531 0.63671 10532 ft 365 kts 314°
2026-04-25 06:00 50.96311 0.60800 10290 ft 364 kts 314°
2026-04-25 06:00 50.98085 0.57944 10105 ft 359 kts 314°
2026-04-25 06:00 51.00368 0.54256 9758 ft 341 kts 314°
2026-04-25 06:01 51.01452 0.52498 9587 ft 332 kts 314°
2026-04-25 06:01 51.03036 0.49927 9339 ft 320 kts 314°
2026-04-25 06:01 51.05031 0.46688 9252 ft 297 kts 314°
2026-04-25 06:01 51.05992 0.45127 9247 ft 287 kts 314°
2026-04-25 06:02 51.07374 0.42889 9260 ft 283 kts 314°
2026-04-25 06:02 51.08792 0.40710 9262 ft 284 kts 316°
2026-04-25 06:02 51.10234 0.38543 9265 ft 285 kts 316°
2026-04-25 06:02 51.11653 0.36399 9263 ft 285 kts 316°
2026-04-25 06:03 51.13088 0.34218 9262 ft 285 kts 315°
2026-04-25 06:03 51.14517 0.32041 9265 ft 285 kts 315°
2026-04-25 06:03 51.15947 0.29857 9260 ft 285 kts 315°
2026-04-25 06:03 51.17373 0.27676 9228 ft 284 kts 315°
2026-04-25 06:04 51.18803 0.25486 9112 ft 284 kts 315°
2026-04-25 06:04 51.20229 0.23309 8875 ft 283 kts 315°
2026-04-25 06:04 51.21649 0.21129 8615 ft 282 kts 315°
2026-04-25 06:04 51.23058 0.18960 8351 ft 281 kts 315°
2026-04-25 06:05 51.24464 0.16796 8116 ft 280 kts 315°
2026-04-25 06:05 51.25859 0.14646 7908 ft 271 kts 315°
2026-04-25 06:05 51.26993 0.12345 7731 ft 261 kts 301°
2026-04-25 06:05 51.27926 0.09915 7555 ft 253 kts 301°
2026-04-25 06:06 51.28839 0.07570 7406 ft 244 kts 302°
2026-04-25 06:06 51.29688 0.05442 7273 ft 235 kts 303°
2026-04-25 06:06 51.30746 0.03523 7143 ft 227 kts 318°
2026-04-25 06:06 51.31928 0.01970 7026 ft 219 kts 322°
2026-04-25 06:07 51.33128 0.00515 6917 ft 208 kts 323°
2026-04-25 06:07 51.34239 -0.00803 6775 ft 191 kts 323°
2026-04-25 06:07 51.35283 -0.02030 6455 ft 184 kts 323°
2026-04-25 06:07 51.36297 -0.03215 6061 ft 182 kts 324°
2026-04-25 06:08 51.37314 -0.04397 5668 ft 180 kts 324°
2026-04-25 06:08 51.38324 -0.05570 5284 ft 178 kts 324°
2026-04-25 06:08 51.39317 -0.06722 4929 ft 174 kts 324°
2026-04-25 06:08 51.40271 -0.07828 4757 ft 165 kts 324°
2026-04-25 06:09 51.41169 -0.08869 4623 ft 156 kts 324°
2026-04-25 06:09 51.42033 -0.09872 4392 ft 151 kts 324°
2026-04-25 06:09 51.42881 -0.10856 4158 ft 149 kts 324°
2026-04-25 06:09 51.43722 -0.11830 3912 ft 148 kts 324°
2026-04-25 06:10 51.44552 -0.12794 3667 ft 147 kts 325°
2026-04-25 06:10 51.45361 -0.13734 3542 ft 139 kts 325°
2026-04-25 06:10 51.46135 -0.14633 3506 ft 140 kts 325°
2026-04-25 06:10 51.46936 -0.15568 3451 ft 141 kts 324°
2026-04-25 06:11 51.47586 -0.16742 3326 ft 144 kts 294°
2026-04-25 06:11 51.47843 -0.18279 3248 ft 143 kts 277°
2026-04-25 06:11 51.47902 -0.19869 3062 ft 142 kts 271°
2026-04-25 06:11 51.47914 -0.21422 2871 ft 141 kts 271°
2026-04-25 06:12 51.47919 -0.22999 2673 ft 141 kts 269°
2026-04-25 06:12 51.47906 -0.24571 2480 ft 141 kts 269°
2026-04-25 06:12 51.47896 -0.26142 2285 ft 140 kts 269°
2026-04-25 06:12 51.47887 -0.27706 2097 ft 140 kts 269°
2026-04-25 06:13 51.47877 -0.29272 1904 ft 140 kts 269°
2026-04-25 06:13 51.47868 -0.30826 1717 ft 139 kts 269°
2026-04-25 06:13 51.47858 -0.32380 1523 ft 139 kts 269°
2026-04-25 06:14 51.47837 -0.35472 1138 ft 138 kts 269°
2026-04-25 06:14 51.47827 -0.36986 933 ft 137 kts 269°
2026-04-25 06:14 51.47818 -0.38501 738 ft 135 kts 270°
2026-04-25 06:14 51.47808 -0.40032 544 ft 134 kts 270°
2026-04-25 06:15 51.47798 -0.41519 372 ft 133 kts 270°
2026-04-25 06:15 51.47789 -0.42980 188 ft 133 kts 270°
2026-04-25 06:15 51.47775 -0.44423 97 ft 122 kts 266°
2026-04-25 06:15 51.47749 -0.45577 90 ft 70 kts 273°
2026-04-25 06:16 51.47759 -0.45903 92 ft 12 kts 271°
2026-04-25 06:16 51.47760 -0.46176 96 ft 28 kts 269°
2026-04-25 06:16 51.47751 -0.46493 100 ft 28 kts 257°
2026-04-25 06:16 51.47697 -0.46727 102 ft 10 kts 244°
2026-04-25 06:17 51.47666 -0.46819 101 ft 9 kts 232°
2026-04-25 06:17 51.47603 -0.46909 98 ft 15 kts 233°
2026-04-25 06:17 51.47583 -0.47087 97 ft 18 kts 268°
2026-04-25 06:17 51.47581 -0.47184 97 ft 3 kts 269°
2026-04-25 06:18 51.47581 -0.47249 96 ft 8 kts 265°
2026-04-25 06:18 51.47542 -0.47339 96 ft 12 kts 220°
2026-04-25 06:18 51.47501 -0.47423 96 ft 9 kts 252°
2026-04-25 06:18 51.47492 -0.47533 95 ft 11 kts 268°
2026-04-25 06:19 51.47490 -0.47683 96 ft 16 kts 270°
2026-04-25 06:19 51.47484 -0.47794 95 ft 2 kts 258°
2026-04-25 06:19 51.47474 -0.47830 96 ft 5 kts 239°
2026-04-25 06:19 51.47444 -0.47859 97 ft 6 kts 202°
2026-04-25 06:20 51.47397 -0.47874 96 ft 8 kts 182°
2026-04-25 06:20 51.47351 -0.47876 96 ft 0 kts 179°
2026-04-25 06:20 51.47348 -0.47873 96 ft 1 kts 161°
2026-04-25 06:20 51.47329 -0.47854 99 ft 5 kts 139°
2026-04-25 06:21 51.47319 -0.47799 96 ft 7 kts 96°
2026-04-25 06:21 51.47317 -0.47759 96 ft 1 kts 93°
2026-04-25 06:21 51.47317 -0.47739 97 ft 0 kts 92°